EW6553 Weather Reports


time (UTC)temp
C
wind
direction
speed
KPH
gust
KPH
rain 1hr
cm
rain 24hr
cm
rain mn
cm
humidity
%
barometer
mb
20260509173725 29 18 3.2 9.7 0.00 0.00 0.00 57 1010.3
20260509173226 29 343 3.2 9.7 0.00 0.00 0.00 56 1010.3
20260509172722 28 59 3.2 9.7 0.00 0.00 0.00 55 1010.4
20260509172223 29 46 4.8 12.9 0.00 0.00 0.00 56 1010.5
20260509171722 29 355 3.2 12.9 0.00 0.00 0.00 59 1010.4
20260509171223 28 350 3.2 9.7 0.00 0.00 0.00 59 1010.5
20260509170723 28 340 3.2 11.3 0.00 0.00 0.00 56 1010.6
20260509170223 28 344 3.2 11.3 0.00 0.00 0.00 56 1010.6
20260509165724 28 67 3.2 9.7 0.00 0.00 0.00 57 1010.5
20260509165223 28 331 3.2 12.9 0.00 0.00 0.00 57 1010.7
20260509164724 28 346 4.8 14.5 0.00 0.00 0.00 56 1010.6
20260509164223 28 355 4.8 14.5 0.00 0.00 0.00 56 1010.7
20260509163724 28 355 4.8 9.7 0.00 0.00 0.00 58 1010.8
20260509163222 28 355 4.8 12.9 0.00 0.00 0.00 56 1010.9
20260509162723 27 86 3.2 12.9 0.00 0.00 0.00 55 1010.8
20260509162217 27 19 4.8 14.5 0.00 0.00 0.00 56 1010.7
20260509161711 27 44 4.8 16.1 0.00 0.00 0.00 58 1010.7
20260509161211 27 15 4.8 16.1 0.00 0.00 0.00 56 1010.6
20260509160711 27 328 6.4 16.1 0.00 0.00 0.00 59 1010.6
20260509160211 27 355 6.4 16.1 0.00 0.00 0.00 59 1010.6
20260509155941 27 327 4.8 16.1 0.00 0.00 0.00 59 1010.6
20260509155211 27 344 4.8 14.5 0.00 0.00 0.00 57 1010.6
20260509154709 27 14 4.8 14.5 0.00 0.00 0.00 59 1010.5
20260509154210 27 332 6.4 14.5 0.00 0.00 0.00 59 1010.7
20260509153710 26 292 6.4 14.5 0.00 0.00 0.00 59 1010.6
20260509153210 26 355 6.4 16.1 0.00 0.00 0.00 61 1010.6
20260509152711 26 327 6.4 17.7 0.00 0.00 0.00 59 1010.6
20260509152431 26 0 6.4 17.7 0.00 0.00 0.00 61 1010.5
20260509151706 26 331 4.8 14.5 0.00 0.00 0.00 61 1010.7
20260509151208 26 5 3.2 9.7 0.00 0.00 0.00 63 1010.6
20260509150706 25 5 4.8 12.9 0.00 0.00 0.00 64 1010.6
20260509150205 25 347 4.8 12.9 0.00 0.00 0.00 66 1010.7
20260509145705 25 284 4.8 12.9 0.00 0.00 0.00 67 1010.6
20260509145205 25 335 6.4 16.1 0.00 0.00 0.00 67 1010.7
20260509144702 25 355 6.4 16.1 0.00 0.00 0.00 68 1010.7
20260509144429 25 344 4.8 12.9 0.00 0.00 0.00 68 1010.8
20260509143702 24 57 4.8 14.5 0.00 0.00 0.00 68 1010.7
20260509143428 24 0 6.4 17.7 0.00 0.00 0.00 69 1010.7
20260509142926 24 325 6.4 17.7 0.00 0.00 0.00 69 1010.8
20260509142201 24 229 4.8 16.1 0.00 0.00 0.00 70 1010.6
20260509141704 24 11 4.8 16.1 0.00 0.00 0.00 71 1010.6
20260509141700 23 240 3.2 9.7 0.00 0.00 0.00 73 1010.5
20260509140701 23 236 3.2 9.7 0.00 0.00 0.00 76 1010.7
20260509140202 23 0 3.2 9.7 0.00 0.00 0.00 78 1010.6
20260509135701 23 323 3.2 8.0 0.00 0.00 0.00 80 1010.7
20260509135201 22 44 3.2 8.0 0.00 0.00 0.00 81 1010.8
20260509134701 22 336 3.2 8.0 0.00 0.00 0.00 82 1010.8
20260509134201 22 339 3.2 8.0 0.00 0.00 0.00 82 1010.7
20260509133700 22 347 4.8 11.3 0.00 0.00 0.00 83 1010.6
20260509133201 22 335 4.8 14.5 0.00 0.00 0.00 84 1010.6
20260509132701 21 286 4.8 14.5 0.00 0.00 0.00 84 1010.6
20260509132435 21 333 3.2 14.5 0.00 0.00 0.00 85 1010.7
20260509131700 21 330 3.2 14.5 0.00 0.00 0.00 85 1010.7
20260509131653 21 350 3.2 8.0 0.00 0.00 0.00 86 1010.7
20260509130701 21 320 3.2 6.4 0.00 0.00 0.00 86 1010.7
20260509130201 20 337 3.2 6.4 0.00 0.00 0.00 87 1010.7
20260509125706 20 316 3.2 6.4 0.00 0.00 0.00 87 1010.8
20260509125209 20 333 3.2 6.4 0.00 0.00 0.00 87 1010.7
20260509124702 20 344 3.2 9.7 0.00 0.00 0.00 87 1010.7
20260509124422 20 324 3.2 9.7 0.00 0.00 0.00 87 1010.7
20260509123701 20 308 4.8 9.7 0.00 0.00 0.00 87 1010.7
20260509123201 20 339 4.8 9.7 0.00 0.00 0.00 87 1010.7
20260509122701 20 319 4.8 8.0 0.00 0.00 0.00 86 1010.7
20260509122201 20 355 4.8 9.7 0.00 0.00 0.00 86 1010.6
20260509121935 20 329 4.8 9.7 0.00 0.00 0.00 86 1010.5
20260509121202 20 335 3.2 8.0 0.00 0.00 0.00 86 1010.6
20260509120702 20 319 3.2 6.4 0.00 0.00 0.00 85 1010.4
20260509120202 20 298 3.2 6.4 0.00 0.00 0.00 85 1010.5
20260509115925 20 330 3.2 6.4 0.00 0.00 0.00 85 1010.4
20260509115200 20 350 3.2 6.4 0.00 0.00 0.00 84 1010.2
20260509114924 20 338 3.2 8.0 0.00 0.00 0.00 84 1010.1
20260509114201 20 325 3.2 8.0 0.00 0.00 0.00 83 1010.1
20260509113659 20 336 3.2 9.7 0.00 0.00 0.00 82 1009.9
20260509113158 20 333 3.2 9.7 0.00 0.00 0.00 82 1009.9
20260509112652 20 311 3.2 8.0 0.00 0.00 0.00 81 1009.9
20260509112146 20 339 3.2 6.4 0.00 0.00 0.00 81 1009.5
20260509111640 20 331 1.6 4.8 0.00 0.00 0.00 81 1009.5
20260509111134 20 267 1.6 4.8 0.00 0.00 0.00 80 1009.4
20260509110630 20 266 3.2 4.8 0.00 0.00 0.00 80 1009.1
20260509110129 20 265 3.2 4.8 0.00 0.00 0.00 80 1009.2
20260509105630 20 321 3.2 6.4 0.00 0.00 0.00 80 1009.0
20260509105133 20 355 3.2 6.4 0.00 0.00 0.00 80 1008.9
20260509104629 20 265 3.2 6.4 0.00 0.00 0.00 79 1009.1
20260509104129 20 264 3.2 6.4 0.00 0.00 0.00 79 1009.1
20260509103629 20 266 1.6 4.8 0.00 0.00 0.00 79 1009.1
20260509103351 20 265 3.2 4.8 0.00 0.00 0.00 79 1009.0
20260509102629 20 267 3.2 6.4 0.00 0.00 0.00 79 1009.1
20260509102130 20 309 3.2 6.4 0.00 0.00 0.00 79 1009.0
20260509101629 20 321 3.2 6.4 0.00 0.00 0.00 81 1009.0
20260509101129 20 240 3.2 6.4 0.00 0.00 0.00 82 1009.0
20260509100629 20 264 3.2 4.8 0.00 0.00 0.00 83 1009.0
20260509100129 20 273 1.6 4.8 0.00 0.00 0.00 83 1008.9
20260509095629 20 273 1.6 4.8 0.00 0.00 0.00 84 1008.8
20260509095129 21 235 0.0 3.2 0.00 0.00 0.00 83 1008.7
20260509094629 21 235 0.0 3.2 0.00 0.00 0.00 83 1008.5
20260509094131 21 235 1.6 4.8 0.00 0.00 0.00 83 1008.4
20260509093854 21 235 1.6 4.8 0.00 0.00 0.00 83 1008.3
20260509093129 21 235 1.6 4.8 0.00 0.00 0.00 84 1008.2
20260509092629 21 355 3.2 6.4 0.00 0.00 0.00 84 1008.3
20260509092348 21 355 4.8 14.5 0.00 0.00 0.00 85 1008.4
20260509091628 21 9 4.8 14.5 0.00 0.00 0.00 85 1008.4
20260509091129 21 355 4.8 11.3 0.00 0.00 0.00 85 1008.1
20260509090628 21 18 6.4 11.3 0.00 0.00 0.00 86 1007.9
20260509090351 21 16 6.4 12.9 0.00 0.00 0.00 86 1007.3
20260509085629 21 220 6.4 12.9 0.00 0.00 0.00 86 1006.8
20260509085129 21 217 6.4 14.5 0.00 0.00 0.00 86 1007.0
20260509084629 21 225 6.4 16.1 0.00 0.00 0.00 86 1007.1
20260509084129 21 208 4.8 16.1 0.00 0.00 0.00 86 1007.2
20260509083903 21 217 4.8 11.3 0.00 0.00 0.00 86 1007.0
20260509083130 21 257 4.8 11.3 0.00 0.00 0.00 86 1007.3
20260509082629 21 225 4.8 14.5 0.00 0.00 0.00 86 1006.8
20260509082136 21 176 4.8 14.5 0.00 0.00 0.00 87 1006.7
20260509081630 21 182 4.8 11.3 0.00 0.00 0.00 86 1007.0
20260509081125 21 161 3.2 9.7 0.00 0.00 0.00 86 1007.1
20260509080618 21 182 3.2 9.7 0.00 0.00 0.00 86 1007.5
20260509080114 21 184 4.8 9.7 0.00 0.00 0.00 86 1008.2
20260509075617 21 210 4.8 9.7 0.00 0.00 0.00 86 1008.7
20260509075341 21 158 4.8 11.3 0.00 0.00 0.00 86 1008.8
20260509074841 21 207 6.4 12.9 0.00 0.00 0.00 86 1009.1
20260509074342 21 219 8.0 19.3 0.00 0.00 0.00 86 1009.4
20260509073837 21 223 9.7 19.3 0.00 0.00 0.00 86 1009.5
20260509073111 21 239 9.7 16.1 0.00 0.00 0.00 86 1009.8
20260509072612 21 225 9.7 16.1 0.00 0.00 0.00 86 1009.9
20260509072112 21 222 8.0 14.5 0.00 0.00 0.00 86 1010.0
20260509071612 21 227 8.0 12.9 0.00 0.00 0.00 86 1010.2
20260509071113 21 215 8.0 14.5 0.00 0.00 0.00 86 1010.5
20260509070610 21 243 9.7 14.5 0.00 0.00 0.00 86 1010.6
20260509070110 21 226 8.0 16.1 0.00 0.00 0.00 86 1010.8
20260509065608 21 229 8.0 16.1 0.00 0.00 0.00 87 1010.7
20260509065338 21 235 6.4 12.9 0.00 0.00 0.00 87 1011.2
20260509064608 21 229 6.4 12.9 0.00 0.00 0.00 87 1011.3
20260509064108 21 238 4.8 11.3 0.00 0.00 0.00 87 1011.2
20260509063834 20 250 4.8 8.0 0.00 0.00 0.00 87 1011.0
20260509063104 20 227 3.2 8.0 0.00 0.00 0.00 87 1010.9
20260509062604 20 228 3.2 6.4 0.00 0.00 0.00 87 1011.0
20260509062104 20 227 3.2 4.8 0.00 0.00 0.00 87 1011.0
20260509061602 20 227 3.2 4.8 0.00 0.00 0.00 87 1011.0
20260509061102 20 227 1.6 4.8 0.00 0.00 0.00 86 1011.0
20260509060827 21 227 1.6 4.8 0.00 0.00 0.00 86 1010.9
20260509060100 21 227 1.6 4.8 0.00 0.00 0.00 86 1011.1
20260509055600 21 227 1.6 4.8 0.00 0.00 0.00 86 1010.8
20260509055100 21 5 0.0 0.0 0.00 0.00 0.00 86 1011.0
20260509054559 21 5 0.0 3.2 0.00 0.00 0.00 86 1011.3
20260509054058 21 5 1.6 3.2 0.00 0.00 0.00 85 1011.2
20260509053558 21 5 0.0 3.2 0.00 0.00 0.00 85 1011.2
20260509053322 21 5 0.0 3.2 0.00 0.00 0.00 84 1011.3
20260509052555 21 5 1.6 3.2 0.00 0.00 0.00 84 1011.4
20260509052054 21 5 1.6 6.4 0.00 0.00 0.00 84 1011.5
20260509051552 21 5 1.6 6.4 0.00 0.00 0.00 84 1011.5
20260509051052 21 55 1.6 4.8 0.00 0.00 0.00 84 1011.7
20260509050552 21 196 1.6 4.8 0.00 0.00 0.00 83 1011.2
20260509050051 21 193 1.6 1.6 0.00 0.00 0.00 83 1010.5
20260509045549 22 193 0.0 3.2 0.00 0.00 0.00 82 1010.6
20260509045050 22 193 1.6 6.4 0.00 0.00 0.00 82 1010.6
20260509044550 22 193 3.2 6.4 0.00 0.00 0.00 82 1010.5
20260509044050 22 192 3.2 6.4 0.00 0.00 0.00 82 1010.4
20260509043545 22 175 1.6 4.8 0.00 0.00 0.00 82 1010.3
20260509043046 22 203 3.2 8.0 0.00 0.00 0.00 82 1010.2
20260509042546 22 207 1.6 8.0 0.00 0.00 0.00 82 1010.1
20260509042046 22 176 1.6 6.4 0.00 0.00 0.00 81 1010.1
20260509041546 22 176 1.6 6.4 0.00 0.00 0.00 81 1010.2
20260509041048 22 159 1.6 6.4 0.00 0.00 0.00 80 1010.1
20260509040549 22 159 1.6 6.4 0.00 0.00 0.00 80 1010.3
20260509040049 22 92 0.0 3.2 0.00 0.00 0.00 80 1010.4
20260509035817 22 92 0.0 3.2 0.00 0.00 0.00 80 1010.4
20260509035046 22 86 0.0 3.2 0.00 0.00 0.00 80 1010.4
20260509034545 22 85 0.0 1.6 0.00 0.00 0.00 80 1010.6
20260509034044 22 85 0.0 1.6 0.00 0.00 0.00 80 1010.6
20260509033541 22 85 0.0 1.6 0.00 0.00 0.00 80 1010.6
20260509033042 22 144 0.0 3.2 0.00 0.00 0.00 80 1010.6
20260509032543 22 144 0.0 3.2 0.00 0.00 0.00 80 1010.4
20260509032040 22 144 1.6 4.8 0.00 0.00 0.00 80 1010.1
20260509031540 22 144 1.6 4.8 0.00 0.00 0.00 79 1009.6
20260509031037 22 139 1.6 4.8 0.00 0.00 0.00 79 1009.5
20260509030535 22 148 1.6 4.8 0.00 0.00 0.00 79 1009.4
20260509030033 22 190 1.6 4.8 0.00 0.00 0.00 79 1009.3
20260509025801 22 190 1.6 8.0 0.00 0.00 0.00 79 1009.2
20260509025030 22 196 1.6 8.0 0.00 0.00 0.00 79 1009.3
20260509024758 22 172 1.6 8.0 0.00 0.00 0.00 79 1009.1
20260509024511 22 173 3.2 8.0 0.00 0.00 0.00 79 1008.8
20260509023515 22 196 3.2 8.0 0.00 0.00 0.00 79 1008.7
20260509023009 22 194 3.2 8.0 0.00 0.00 0.00 79 1008.6
20260509022505 22 200 3.2 8.0 0.00 0.00 0.00 79 1008.6
20260509022237 22 170 3.2 8.0 0.00 0.00 0.00 79 1008.6
20260509021504 22 183 3.2 9.7 0.00 0.00 0.00 79 1008.6
20260509021003 22 187 3.2 9.7 0.00 0.00 0.00 78 1008.5
20260509020506 22 192 3.2 9.7 0.00 0.00 0.00 78 1008.3
20260509020005 22 181 3.2 8.0 0.00 0.00 0.00 77 1008.3
20260509015730 22 184 3.2 8.0 0.00 0.00 0.00 77 1008.4
20260509015004 22 187 1.6 6.4 0.00 0.00 0.00 77 1008.6
20260509014507 22 162 1.6 6.4 0.00 0.00 0.00 77 1008.8
20260509014004 22 156 1.6 6.4 0.00 0.00 0.00 77 1008.8
20260509013504 22 173 1.6 4.8 0.00 0.00 0.00 77 1008.7
20260509013005 23 184 1.6 4.8 0.00 0.00 0.00 77 1008.7
20260509012501 23 196 0.0 3.2 0.00 0.00 0.00 77 1008.8
20260509012001 23 196 0.0 3.2 0.00 0.00 0.00 76 1008.8
20260509011501 23 196 1.6 4.8 0.00 0.00 0.00 77 1008.8
20260509011001 23 196 1.6 6.4 0.00 0.00 0.00 76 1008.7
20260509010501 22 196 1.6 6.4 0.00 0.00 0.00 76 1008.5
20260509005959 23 196 3.2 6.4 0.00 0.00 0.00 76 1008.5
20260509005452 23 196 3.2 6.4 0.00 0.00 0.00 76 1008.3
20260509005441 23 200 3.2 6.4 0.00 0.00 0.00 76 1008.2
20260509004441 23 169 3.2 6.4 0.00 0.00 0.00 76 1008.2
20260509003941 23 182 3.2 6.4 0.00 0.00 0.00 75 1008.2
20260509003442 23 207 3.2 8.0 0.00 0.00 0.00 75 1008.1
20260509003214 23 211 3.2 9.7 0.00 0.00 0.00 75 1008.1
20260509002442 23 207 3.2 9.7 0.00 0.00 0.00 75 1008.0
20260509001942 23 182 3.2 9.7 0.00 0.00 0.00 74 1008.0
20260509001441 23 207 3.2 9.7 0.00 0.00 0.00 74 1008.0
20260509000943 23 204 3.2 6.4 0.00 0.00 0.00 74 1008.0
20260509000442 23 166 3.2 9.7 0.00 0.00 0.00 74 1008.1
20260508235941 23 218 3.2 9.7 0.00 0.00 0.00 74 1008.1
20260508235706 23 182 3.2 8.0 0.00 0.00 0.00 73 1008.2
20260508234940 23 213 3.2 8.0 0.00 0.00 0.00 74 1008.2
20260508234440 23 215 4.8 11.3 0.00 0.00 0.00 73 1008.2
20260508233940 23 208 4.8 11.3 0.00 0.00 0.00 73 1008.4
20260508233439 23 169 4.8 12.9 0.00 0.00 0.00 73 1008.4
20260508232938 23 218 4.8 12.9 0.00 0.00 0.00 73 1008.6
20260508232440 23 163 6.4 14.5 0.00 0.00 0.00 72 1008.6
20260508232436 23 226 6.4 14.5 0.00 0.00 0.00 72 1008.6
20260508231438 23 237 4.8 12.9 0.00 0.00 0.00 71 1008.6
20260508230931 24 219 3.2 12.9 0.00 0.00 0.00 70 1008.6
20260508230425 24 216 3.2 9.7 0.00 0.00 0.00 70 1008.5
20260508225919 24 223 4.8 9.7 0.00 0.00 0.00 70 1008.5
20260508225416 24 163 4.8 9.7 0.00 0.00 0.00 69 1008.5
20260508225404 25 188 4.8 9.7 0.00 0.00 0.00 68 1008.5
20260508224405 24 169 4.8 16.1 0.00 0.00 0.00 68 1008.4
20260508223901 25 211 4.8 16.1 0.00 0.00 0.00 67 1008.5
20260508223400 25 196 6.4 17.7 0.00 0.00 0.00 67 1008.5
20260508223123 25 214 6.4 17.7 0.00 0.00 0.00 67 1008.4
20260508222401 25 211 4.8 17.7 0.00 0.00 0.00 68 1008.4
20260508221902 25 194 4.8 14.5 0.00 0.00 0.00 68 1008.6
20260508221401 25 175 4.8 14.5 0.00 0.00 0.00 67 1008.5
20260508220901 25 175 4.8 12.9 0.00 0.00 0.00 66 1008.6
20260508220401 25 165 4.8 12.9 0.00 0.00 0.00 65 1008.5
20260508220124 25 207 6.4 14.5 0.00 0.00 0.00 66 1008.5
20260508215404 25 196 6.4 14.5 0.00 0.00 0.00 65 1008.7
20260508214904 25 238 6.4 14.5 0.00 0.00 0.00 65 1008.6
20260508214404 25 172 4.8 11.3 0.00 0.00 0.00 64 1008.7
20260508213904 25 208 4.8 17.7 0.00 0.00 0.00 63 1008.7
20260508213404 25 221 4.8 17.7 0.00 0.00 0.00 63 1008.7
20260508212910 25 221 4.8 9.7 0.00 0.00 0.00 64 1008.8
20260508212404 24 180 4.8 11.3 0.00 0.00 0.00 64 1008.9
20260508211902 24 191 4.8 12.9 0.00 0.00 0.00 64 1009.0
20260508211354 24 200 4.8 12.9 0.00 0.00 0.00 65 1009.1
20260508210846 24 173 4.8 11.3 0.00 0.00 0.00 65 1009.1
20260508210336 24 238 4.8 16.1 0.00 0.00 0.00 65 1009.3
20260508205840 24 219 4.8 16.1 0.00 0.00 0.00 64 1009.4
20260508205335 25 173 4.8 11.3 0.00 0.00 0.00 63 1009.4
20260508204839 25 191 4.8 11.3 0.00 0.00 0.00 62 1009.3
20260508204335 25 176 3.2 8.0 0.00 0.00 0.00 64 1009.4
20260508203836 24 159 3.2 8.0 0.00 0.00 0.00 65 1009.3
20260508203559 23 171 3.2 8.0 0.00 0.00 0.00 66 1009.4
20260508202835 23 219 3.2 8.0 0.00 0.00 0.00 69 1009.9
20260508202334 22 186 3.2 8.0 0.00 0.00 0.00 70 1010.2
20260508201835 22 168 4.8 8.0 0.00 0.00 0.00 69 1010.5
20260508201335 22 213 4.8 14.5 0.00 0.00 0.00 69 1010.8
20260508200835 22 229 6.4 14.5 0.00 0.00 0.00 69 1011.0
20260508200335 22 213 6.4 11.3 0.00 0.00 0.00 69 1011.3
20260508195833 22 241 8.0 16.1 0.00 0.00 0.00 69 1011.1
20260508195333 22 213 6.4 16.1 0.00 0.00 0.00 68 1011.0
20260508195103 22 233 4.8 14.5 0.00 0.00 0.00 67 1011.0
20260508194559 23 205 4.8 11.3 0.00 0.00 0.00 67 1010.9
20260508193833 23 215 6.4 12.9 0.00 0.00 0.00 66 1011.0
20260508193332 23 227 4.8 12.9 0.00 0.00 0.00 67 1010.9
20260508192833 23 169 4.8 11.3 0.00 0.00 0.00 67 1010.9
20260508192333 23 213 4.8 11.3 0.00 0.00 0.00 67 1010.9
20260508192053 23 219 4.8 12.9 0.00 0.00 0.00 67 1011.0
20260508191331 23 155 4.8 12.9 0.00 0.00 0.00 67 1011.0
20260508190831 23 242 4.8 16.1 0.00 0.00 0.00 67 1011.0
20260508190331 23 204 4.8 16.1 0.00 0.00 0.00 68 1011.1
20260508190053 23 213 3.2 9.7 0.00 0.00 0.00 67 1011.2
20260508185556 23 213 4.8 11.3 0.00 0.00 0.00 67 1011.2
20260508184831 23 235 4.8 11.3 0.00 0.00 0.00 67 1011.3
20260508184331 23 205 4.8 8.0 0.00 0.00 0.00 67 1011.3
20260508183829 23 227 4.8 12.9 0.00 0.00 0.00 67 1011.4
20260508183552 23 139 4.8 12.9 0.00 0.00 0.00 66 1011.6
20260508182829 23 200 4.8 14.5 0.00 0.00 0.00 65 1011.6
20260508182329 24 214 4.8 14.5 0.00 0.00 0.00 66 1011.6
20260508181829 23 212 4.8 9.7 0.00 0.00 0.00 66 1011.6
20260508181328 23 213 6.4 12.9 0.00 0.00 0.00 65 1011.7
20260508180828 23 198 4.8 12.9 0.00 0.00 0.00 66 1011.7
20260508180329 23 216 4.8 12.9 0.00 0.00 0.00 65 1011.8
20260508175829 23 188 3.2 9.7 0.00 0.00 0.00 64 1011.9
20260508175551 23 173 4.8 12.9 0.00 0.00 0.00 64 1012.0
20260508174829 23 234 4.8 12.9 0.00 0.00 0.00 65 1012.1
20260508174329 23 199 4.8 11.3 0.00 0.00 0.00 64 1012.1